Tracking 35275 objects as of 8-Sep-2026
HD Live streaming from Space Station
objects crossing your sky now

OBJECT A


10-day predictions


NORAD ID: 55248
Int'l Code: 2023-007A
Launch date: January 15, 2023
Source: People's Republic of China (PRC)
Launch site: Taiyaun Space Center, China (TSC)
Your satellite tracking list
Your tracking list is empty




NASA's NSSDC Master Catalog

Two Line Element Set (TLE):
1 55248U 23007A   25032.34741356  .14915116  25233-5  43870-3 0  9994
2 55248  97.2648 115.4549 0008589 256.4706 219.4788 16.44648748114884
Source of the keplerian elements: AFSPC